• Em Portugal
  • Lista de países
  • Para 7 dias
  • Temperatura da água
  • Mapas de satélite
  • Mapa do tempo
  • Widgets de tempo
  • user-avatar
    Iniciar Sessão

    Previsão horária em Ulaangom

    Hoje, 19 Outubro, Quinta-feira

    Tempo Temperatura Precipitação Vento Pressão Humidade
    00:00 +3°C° 0 mm 1 m/s 624 mmHg 57%
    01:00 +3°C° 0 mm 1 m/s 624 mmHg 57%
    02:00 +3°C° 0 mm 1 m/s 624 mmHg 57%
    03:00 +2°C° 0 mm 1 m/s 624 mmHg 57%
    04:00 +2°C° 0 mm 1 m/s 624 mmHg 57%
    05:00 +2°C° 0 mm 1 m/s 624 mmHg 57%
    06:00 +2°C° 0 mm 1 m/s 624 mmHg 58%
    07:00 +4°C° 0 mm 1 m/s 625 mmHg 53%
    08:00 +5°C° 0 mm 1 m/s 626 mmHg 48%
    09:00 +7°C° 0 mm 1 m/s 626 mmHg 44%
    10:00 +7°C° 0 mm 1 m/s 626 mmHg 42%
    11:00 +8°C° 0 mm 1 m/s 626 mmHg 41%
    12:00 +9°C° 0 mm 1 m/s 626 mmHg 40%
    13:00 +8°C° 0 mm 1 m/s 626 mmHg 42%
    14:00 +8°C° 0 mm 1 m/s 626 mmHg 45%
    15:00 +8°C° 0 mm 1 m/s 626 mmHg 47%
    16:00 +7°C° 0,1 mm 1 m/s 626 mmHg 51%
    17:00 +6°C° 0,1 mm 1 m/s 625 mmHg 55%
    18:00 +5°C° 0,1 mm 1 m/s 625 mmHg 59%
    19:00 +5°C° 0 mm 1 m/s 625 mmHg 60%
    20:00 +5°C° 0 mm 1 m/s 625 mmHg 61%
    21:00 +5°C° 0 mm 1 m/s 625 mmHg 62%
    22:00 +4°C° 0 mm 1 m/s 625 mmHg 63%
    23:00 +3°C° 0 mm 2 m/s 625 mmHg 64%

    Amanhã, 20 Outubro, Sexta-feira

    Tempo Temperatura Precipitação Vento Pressão Humidade
    00:00 +3°C° 0 mm 2 m/s 625 mmHg 65%
    01:00 +2°C° 0 mm 2 m/s 625 mmHg 66%
    02:00 +1°C° 0 mm 3 m/s 625 mmHg 66%
    03:00 0°C° 0 mm 3 m/s 625 mmHg 66%
    04:00 0°C° 0 mm 3 m/s 626 mmHg 65%
    05:00 0°C° 0 mm 3 m/s 626 mmHg 65%
    06:00 -1°C° 0 mm 3 m/s 626 mmHg 64%
    07:00 0°C° 0 mm 4 m/s 627 mmHg 58%
    08:00 +1°C° 0 mm 4 m/s 627 mmHg 52%
    09:00 +3°C° 0 mm 4 m/s 628 mmHg 46%
    10:00 +4°C° 0 mm 4 m/s 628 mmHg 42%
    11:00 +3°C° 0 mm 5 m/s 628 mmHg 39%
    12:00 +5°C° 0 mm 5 m/s 628 mmHg 35%
    13:00 +5°C° 0 mm 5 m/s 628 mmHg 35%
    14:00 +5°C° 0 mm 5 m/s 628 mmHg 35%
    15:00 +5°C° 0 mm 5 m/s 628 mmHg 34%
    16:00 +4°C° 0 mm 4 m/s 628 mmHg 38%
    17:00 +3°C° 0 mm 4 m/s 628 mmHg 42%
    18:00 +2°C° 0 mm 3 m/s 628 mmHg 45%
    19:00 +1°C° 0 mm 3 m/s 628 mmHg 47%
    20:00 +1°C° 0 mm 3 m/s 629 mmHg 49%
    21:00 0°C° 0 mm 3 m/s 629 mmHg 50%
    22:00 0°C° 0 mm 3 m/s 629 mmHg 52%
    23:00 0°C° 0 mm 3 m/s 629 mmHg 53%

    Depois de amanhã, 21 Outubro, Sábado

    Tempo Temperatura Precipitação Vento Pressão Humidade
    00:00 +1°C° 0 mm 2 m/s 629 mmHg 54%
    01:00 +1°C° 0 mm 2 m/s 629 mmHg 55%
    02:00 -1°C° 0 mm 2 m/s 629 mmHg 57%
    03:00 -1°C° 0 mm 2 m/s 629 mmHg 58%
    04:00 -1°C° 0 mm 2 m/s 629 mmHg 59%
    05:00 -1°C° 0 mm 2 m/s 629 mmHg 59%
    06:00 -1°C° 0 mm 2 m/s 629 mmHg 60%
    07:00 +1°C° 0 mm 2 m/s 630 mmHg 57%
    08:00 +2°C° 0 mm 2 m/s 630 mmHg 53%
    09:00 +4°C° 0 mm 2 m/s 631 mmHg 50%
    10:00 +3°C° 0 mm 3 m/s 631 mmHg 48%
    11:00 +4°C° 0 mm 3 m/s 631 mmHg 46%
    12:00 +5°C° 0 mm 3 m/s 630 mmHg 44%
    13:00 +5°C° 0 mm 4 m/s 630 mmHg 43%
    14:00 +5°C° 0 mm 4 m/s 630 mmHg 43%
    15:00 +5°C° 0 mm 4 m/s 629 mmHg 43%
    16:00 +4°C° 0 mm 4 m/s 629 mmHg 47%
    17:00 +3°C° 0 mm 3 m/s 629 mmHg 50%
    18:00 +1°C° 0 mm 3 m/s 629 mmHg 54%
    19:00 +1°C° 0 mm 3 m/s 628 mmHg 54%
    20:00 +2°C° 0 mm 2 m/s 628 mmHg 55%
    21:00 +1°C° 0 mm 2 m/s 628 mmHg 55%
    22:00 +1°C° 0 mm 2 m/s 628 mmHg 56%
    23:00 +1°C° 0 mm 2 m/s 628 mmHg 57%

    22 Outubro, Domingo

    Tempo Temperatura Precipitação Vento Pressão Humidade
    00:00 +1°C° 0 mm 2 m/s 627 mmHg 58%
    01:00 -1°C° 0 mm 2 m/s 627 mmHg 59%
    02:00 -1°C° 0 mm 2 m/s 627 mmHg 59%
    03:00 -1°C° 0 mm 2 m/s 627 mmHg 60%
    04:00 -1°C° 0 mm 2 m/s 627 mmHg 60%
    05:00 -1°C° 0 mm 2 m/s 627 mmHg 60%
    06:00 -1°C° 0 mm 2 m/s 627 mmHg 60%
    07:00 +1°C° 0 mm 2 m/s 627 mmHg 55%
    08:00 +2°C° 0 mm 2 m/s 628 mmHg 51%
    09:00 +3°C° 0 mm 2 m/s 628 mmHg 46%
    10:00 +4°C° 0 mm 2 m/s 628 mmHg 44%
    11:00 +4°C° 0 mm 3 m/s 628 mmHg 42%
    12:00 +5°C° 0 mm 3 m/s 628 mmHg 40%
    13:00 +5°C° 0 mm 3 m/s 627 mmHg 40%
    14:00 +5°C° 0 mm 3 m/s 627 mmHg 40%
    15:00 +5°C° 0 mm 3 m/s 627 mmHg 41%
    16:00 +4°C° 0 mm 2 m/s 627 mmHg 44%
    17:00 +3°C° 0 mm 2 m/s 626 mmHg 48%
    18:00 +3°C° 0 mm 1 m/s 626 mmHg 51%
    19:00 +3°C° 0 mm 1 m/s 626 mmHg 51%
    20:00 +2°C° 0 mm 1 m/s 626 mmHg 50%
    21:00 +2°C° 0 mm 1 m/s 626 mmHg 50%
    22:00 +2°C° 0 mm 1 m/s 626 mmHg 50%
    23:00 +2°C° 0 mm 1 m/s 626 mmHg 50%

    23 Outubro, Segunda-feira

    Tempo Temperatura Precipitação Vento Pressão Humidade
    00:00 +2°C° 0 mm 1 m/s 626 mmHg 50%
    01:00 +2°C° 0 mm 1 m/s 626 mmHg 51%
    02:00 +1°C° 0 mm 1 m/s 626 mmHg 51%
    03:00 +1°C° 0 mm 1 m/s 626 mmHg 51%
    04:00 +1°C° 0 mm 1 m/s 626 mmHg 52%
    05:00 +1°C° 0 mm 1 m/s 626 mmHg 53%
    06:00 +1°C° 0 mm 1 m/s 626 mmHg 53%
    07:00 +2°C° 0 mm 1 m/s 627 mmHg 49%
    08:00 +3°C° 0 mm 2 m/s 627 mmHg 45%
    09:00 +4°C° 0 mm 2 m/s 628 mmHg 40%
    10:00 +5°C° 0 mm 2 m/s 628 mmHg 39%
    11:00 +6°C° 0 mm 2 m/s 628 mmHg 37%
    12:00 +7°C° 0 mm 2 m/s 628 mmHg 36%
    13:00 +7°C° 0 mm 2 m/s 628 mmHg 37%
    14:00 +7°C° 0 mm 2 m/s 628 mmHg 38%
    15:00 +6°C° 0 mm 2 m/s 628 mmHg 39%
    16:00 +5°C° 0 mm 2 m/s 627 mmHg 43%
    17:00 +4°C° 0 mm 2 m/s 627 mmHg 46%
    18:00 +3°C° 0 mm 1 m/s 627 mmHg 50%
    19:00 +3°C° 0 mm 1 m/s 627 mmHg 49%
    20:00 +3°C° 0 mm 1 m/s 627 mmHg 49%
    21:00 +2°C° 0 mm 1 m/s 627 mmHg 48%
    22:00 +2°C° 0 mm 1 m/s 627 mmHg 48%
    23:00 +2°C° 0 mm 1 m/s 627 mmHg 48%

    24 Outubro, Terça-feira

    Tempo Temperatura Precipitação Vento Pressão Humidade
    00:00 +2°C° 0 mm 1 m/s 626 mmHg 49%
    01:00 +2°C° 0 mm 1 m/s 626 mmHg 49%
    02:00 +2°C° 0 mm 1 m/s 626 mmHg 50%
    03:00 +1°C° 0 mm 1 m/s 626 mmHg 50%
    04:00 +1°C° 0 mm 1 m/s 626 mmHg 50%
    05:00 +1°C° 0 mm 1 m/s 626 mmHg 50%
    06:00 +1°C° 0 mm 1 m/s 626 mmHg 51%
    07:00 +3°C° 0 mm 1 m/s 627 mmHg 46%
    08:00 +4°C° 0 mm 1 m/s 627 mmHg 42%
    09:00 +4°C° 0 mm 2 m/s 628 mmHg 37%
    10:00 +5°C° 0 mm 2 m/s 628 mmHg 36%
    11:00 +6°C° 0 mm 2 m/s 628 mmHg 35%
    12:00 +7°C° 0 mm 3 m/s 628 mmHg 33%
    13:00 +7°C° 0 mm 3 m/s 627 mmHg 35%
    14:00 +5°C° 0 mm 3 m/s 627 mmHg 36%
    15:00 +5°C° 0 mm 3 m/s 627 mmHg 38%
    16:00 +5°C° 0 mm 2 m/s 627 mmHg 40%
    17:00 +4°C° 0 mm 2 m/s 626 mmHg 42%
    18:00 +3°C° 0 mm 2 m/s 626 mmHg 44%
    19:00 +3°C° 0 mm 2 m/s 626 mmHg 44%
    20:00 +3°C° 0 mm 2 m/s 626 mmHg 44%
    21:00 +2°C° 0 mm 2 m/s 626 mmHg 43%
    22:00 +2°C° 0 mm 2 m/s 625 mmHg 44%
    23:00 +2°C° 0 mm 2 m/s 625 mmHg 44%
    Mostrar mais